RH
66 63 60 58 57 56 55 54 53 53 52 52 51 52 52 52 52 50 47 44 41 41 38 32 28 27 23 20 19 18 18 18 19 19 20 20 20 21 21 22 22 23 24 26 27 28 30 31 32 33 33 34 35 36 37 38 39 40 41 42 44 46 48 51 54 56 57 59 62 65 69 73 76 79 81 84 85 86 87 87 87 87 87 89 92 95
59 58 58 57 57 57 57 58 58 58 57 57 56 54 52 50 47 43 37 32 28 27 26 22 20 19 18 17 18 18 19 20 20 21 21 22 22 22 23 24 25 26 27 29 31 32 34 36 37 39 40 41 42 43 44 44 45 46 47 49 51 54 56 59 61 63 65 69 73 77 83 89 93 94 96 97 97 98 98 97 96 95 95 97 99 100
54 54 54 54 55 56 56 57 56 54 51 49 45 41 37 33 31 28 25 22 20 19 19 18 17 17 17 17 18 19 19 20 22 23 24 24 24 25 26 27 28 30 32 34 35 37 39 41 43 45 47 49 50 51 51 52 53 54 57 59 62 64 67 69 70 73 77 81 86 92 96 99 101 101 102 102 101 101 102 101 101 100 100 100 101 101
51 52 52 52 52 52 50 48 45 40 36 32 29 26 23 21 21 20 18 18 17 17 17 17 17 16 16 17 19 20 22 24 26 27 27 28 28 29 30 32 33 35 37 39 41 44 46 48 50 52 53 54 56 57 58 60 62 65 69 72 75 77 78 80 82 85 88 92 96 99 101 101 101 101 101 101 101 101 101 101 101 100 101 100 100 101
45 44 43 41 38 36 33 30 27 23 21 20 18 18 17 17 18 17 17 16 16 18 18 19 20 18 18 20 21 24 27 28 29 30 31 32 34 35 37 38 39 41 42 44 47 49 52 54 56 58 61 63 64 66 68 70 74 79 83 86 88 88 89 91 93 94 96 98 101 102 102 101 101 100 100 100 101 100 100 100 100 100 101 100 100 100
26 26 24 22 20 19 18 17 17 16 16 17 17 17 17 17 18 19 19 19 19 21 22 25 27 22 20 22 25 27 28 28 30 32 34 35 37 39 40 42 43 45 47 49 51 54 57 61 64 67 70 73 75 78 82 85 90 93 96 97 96 96 97 99 100 100 101 101 102 102 101 101 100 100 100 100 100 100 100 101 100 101 100 100 100 100
16 17 17 16 16 16 16 15 16 16 16 18 18 19 20 21 22 23 24 24 25 26 27 29 31 26 22 23 26 28 29 31 33 35 36 38 39 41 43 45 47 49 52 55 58 62 66 71 76 80 84 87 90 94 97 99 100 101 101 101 100 100 101 101 101 101 101 101 101 101 100 100 100 100 100 100 100 100 100 100 100 100 100 100 100 100
16 16 16 16 16 16 16 17 18 19 19 21 21 22 23 25 26 26 27 28 28 29 30 30 31 29 26 25 27 30 32 35 37 38 38 38 40 43 45 47 51 55 59 64 68 74 80 86 90 94 97 99 100 101 101 101 101 101 101 100 100 100 100 100 100 100 100 100 100 100 100 100 100 100 100 100 100 100 100 100 100 100 100 101 101 101
16 16 17 17 18 19 20 21 22 22 22 23 24 24 25 26 26 27 27 28 28 28 29 30 31 31 28 27 29 32 33 34 35 36 38 40 43 45 48 53 57 62 68 74 81 88 94 97 99 100 101 101 101 100 100 100 100 100 100 100 100 100 100 100 100 100 100 100 100 100 100 100 100 100 100 100 100 100 100 100 100 100 101 102 102 101
19 20 20 21 22 23 23 23 24 23 24 24 24 24 24 24 24 24 25 26 27 27 29 29 30 31 28 25 28 30 30 32 35 37 40 44 47 51 57 63 70 77 85 91 96 99 100 100 100 101 100 100 100 100 100 100 100 100 100 100 100 100 100 100 100 100 100 100 100 100 100 100 100 100 100 100 100 100 101 101 102 102 103 102 100 99
23 23 22 21 22 22 22 23 23 22 22 21 20 21 21 22 22 22 23 23 23 23 22 22 22 23 23 21 23 29 32 34 37 41 47 53 57 64 71 78 87 94 99 101 101 100 100 100 100 100 100 100 100 100 100 100 100 100 100 100 100 100 100 100 100 100 100 100 100 100 100 100 100 100 101 102 102 102 101 101 100 100 98 96 95 95
21 19 18 18 18 18 19 20 20 20 20 20 20 20 20 20 19 18 17 15 14 11 10 11 10 12 19 23 23 29 34 38 43 50 58 65 72 81 88 93 99 102 101 101 100 100 100 100 100 100 100 100 100 100 100 100 100 100 100 100 100 100 100 100 100 100 100 100 100 100 100 100 100 101 101 100 98 96 96 96 97 97 96 96 97 97
16 15 14 14 14 14 15 19 21 21 21 20 18 17 15 13 11 10 8 7 6 4 4 5 4 7 19 28 29 31 33 38 44 50 58 70 83 94 99 100 101 100 100 100 100 100 100 100 100 100 100 100 100 100 100 100 100 100 100 100 100 100 100 100 100 100 100 101 101 100 100 101 101 100 98 96 94 94 96 98 99 100 101 102 102 100
12 12 12 13 15 16 16 18 19 17 15 13 10 9 7 6 5 5 4 4 3 3 3 4 5 10 16 20 21 21 20 23 27 35 49 68 85 95 99 101 101 100 100 101 100 100 100 100 100 100 100 100 100 100 100 100 100 100 100 100 100 100 100 100 100 100 100 101 101 100 100 101 101 100 100 100 100 100 101 101 101 101 101 101 100 100
11 12 14 17 17 17 15 13 11 8 7 5 4 4 4 4 4 3 3 3 3 3 4 4 6 9 9 7 8 8 10 15 21 33 53 72 86 93 98 101 100 99 100 100 100 100 100 100 100 100 100 100 100 100 100 100 100 100 100 100 100 100 100 100 100 100 100 100 100 100 100 100 100 100 100 101 101 101 101 100 100 99 99 99 99 99
15 16 16 14 12 10 8 6 5 4 4 4 4 3 3 3 3 3 3 3 4 3 4 5 5 5 5 5 7 8 11 15 21 33 53 74 90 98 102 103 101 100 100 99 100 100 100 100 100 100 100 100 100 100 100 100 100 100 100 100 100 100 100 100 100 100 100 100 100 100 100 100 100 100 100 101 101 101 100 99 98 98 97 96 94 91
15 13 10 8 6 5 4 4 4 4 4 3 3 3 3 4 3 4 4 4 5 4 4 5 5 5 5 6 7 8 8 11 19 31 45 66 87 98 101 101 101 99 96 95 95 95 96 97 97 98 98 98 99 100 101 101 100 100 100 100 100 100 100 100 100 100 100 100 100 100 100 100 101 101 101 101 101 100 98 97 95 92 89 85 82 78
9 7 6 5 4 4 4 4 4 4 4 3 4 4 4 4 5 5 5 5 6 6 6 6 6 7 7 7 8 7 6 9 17 33 52 70 86 95 98 99 101 99 97 97 96 95 95 96 98 99 99 99 100 101 101 101 100 100 100 100 100 100 100 100 100 100 100 100 101 101 101 101 101 101 100 97 95 93 90 86 83 79 75 71 68 65
6 5 4 4 5 4 4 4 4 4 4 4 4 5 5 6 6 6 7 7 7 7 7 7 7 8 8 8 8 8 9 9 12 32 69 96 102 101 100 99 99 99 99 100 100 99 99 99 100 101 101 101 101 101 101 100 100 100 100 100 100 100 100 100 100 100 100 99 99 98 97 95 94 92 89 86 82 79 75 71 67 63 60 57 55 53
4 4 5 5 5 4 4 4 4 4 4 5 6 6 7 7 7 8 8 9 9 10 9 8 8 9 9 9 10 9 10 12 10 20 48 76 87 91 95 99 103 103 103 103 102 103 102 102 102 101 102 102 101 101 101 101 100 101 101 101 100 100 100 99 97 95 93 91 89 87 85 82 80 77 74 71 67 63 59 57 54 51 49 47 46 44
5 5 5 5 5 4 4 4 4 4 5 5 6 7 8 8 9 9 9 10 11 12 11 10 10 11 11 11 12 12 11 13 14 14 19 28 36 42 49 63 77 86 91 95 97 97 97 97 98 98 98 98 97 97 97 97 97 96 96 94 93 91 89 87 84 81 78 76 74 72 70 67 66 64 62 60 58 56 55 53 52 49 47 45 42 40
6 6 6 5 4 4 4 4 5 5 6 7 7 8 9 9 10 10 11 12 13 13 13 12 12 13 13 13 14 15 15 15 15 16 16 17 18 18 19 24 32 36 41 46 48 49 50 52 55 58 61 63 63 64 65 66 67 67 68 68 67 66 65 64 64 62 62 63 63 64 64 65 67 68 68 67 67 66 64 61 58 54 51 47 45 43
6 6 6 5 5 4 4 5 5 6 6 8 9 10 10 11 12 12 13 14 14 15 14 14 15 16 15 16 17 18 18 19 19 18 19 19 19 20 21 21 21 22 22 22 21 20 19 19 20 21 25 29 34 39 43 47 51 53 55 57 58 60 62 65 67 70 72 74 77 80 82 85 88 89 90 90 89 86 81 75 70 64 57 53 49 46
7 6 6 6 5 5 5 5 6 6 7 9 10 11 12 12 13 14 14 15 15 16 16 15 16 17 18 18 19 20 20 22 23 23 23 23 23 22 23 24 25 27 28 29 29 28 27 25 23 21 20 21 25 31 39 46 51 55 59 61 64 67 72 77 81 84 87 91 95 98 98 99 101 101 102 102 100 96 91 87 83 76 70 65 61 57
7 7 7 6 6 6 6 6 7 8 9 10 11 12 13 14 15 15 15 16 16 16 17 17 16 18 20 20 20 21 22 23 24 25 26 27 27 27 26 27 29 30 32 34 36 37 37 37 35 34 32 29 28 28 33 42 50 56 61 65 68 71 78 85 91 95 98 99 101 101 101 102 102 102 102 102 100 98 96 95 93 90 87 85 84 82
8 7 7 7 7 7 8 8 9 10 11 12 13 14 15 16 17 17 17 18 18 18 19 19 18 19 20 21 21 22 23 24 25 26 28 29 30 30 30 31 33 34 35 36 39 41 44 46 47 46 44 42 40 37 36 39 46 53 61 68 73 77 83 91 96 99 101 102 101 100 100 100 100 100 99 99 99 98 98 97 96 95 94 93 93 93
9 9 9 9 9 10 11 12 12 13 14 15 15 15 16 18 19 20 20 20 20 19 19 21 21 21 21 21 22 23 24 25 26 28 29 30 32 33 33 35 36 38 39 40 43 46 50 54 56 57 56 54 52 50 47 44 42 45 51 59 67 73 79 85 89 92 94 96 96 96 96 95 95 96 96 96 96 95 94 93 92 90 89 87 86 85
10 11 11 12 13 13 14 14 15 16 16 16 17 17 18 19 21 22 23 24 24 22 21 23 24 24 23 23 24 25 25 27 29 30 31 33 34 34 35 37 39 41 43 45 48 53 57 60 63 66 68 67 65 63 61 58 54 50 48 50 55 62 68 74 78 81 84 86 88 89 90 92 93 94 94 92 91 89 86 82 79 75 72 69 66 64
12 13 13 13 14 15 15 15 17 18 18 18 18 19 20 21 23 25 26 26 27 26 25 26 27 28 28 27 26 27 28 29 31 32 34 36 37 37 38 41 44 47 49 51 55 60 64 68 72 75 77 79 79 77 74 72 70 68 64 62 61 62 67 72 76 79 81 84 86 89 90 92 93 91 87 83 79 74 70 65 61 58 55 53 51 50
13 14 14 14 15 16 16 16 18 18 19 20 20 20 22 24 26 28 30 31 30 29 30 31 30 32 34 33 32 32 32 34 36 38 40 40 40 40 42 46 49 53 56 59 63 68 73 78 83 85 87 88 89 89 87 86 85 84 83 82 80 79 79 80 82 84 86 87 89 89 88 87 84 79 74 69 65 62 60 57 55 53 51 51 50 49
15 16 16 17 17 18 18 18 19 19 20 21 21 23 25 27 30 33 36 39 37 32 33 36 34 35 37 36 36 35 35 36 38 41 43 44 43 43 46 51 54 57 61 65 70 77 83 89 92 93 93 92 92 93 95 96 96 96 96 95 95 95 95 95 94 93 91 89 87 84 80 78 74 71 68 66 64 62 60 57 54 52 50 50 50 49
17 17 18 18 19 19 19 20 20 20 20 21 23 26 28 29 33 38 43 49 46 39 39 41 41 42 41 38 36 36 37 38 38 42 46 46 45 47 50 53 57 60 65 71 78 85 91 94 96 97 96 95 95 95 96 99 102 103 103 102 101 100 101 101 101 98 95 91 87 84 82 79 77 75 72 70 66 62 58 54 52 50 48 48 48 47
17 18 19 19 19 20 20 21 22 20 20 21 23 26 27 28 33 38 48 58 56 49 49 49 47 48 46 41 37 37 38 39 39 45 51 48 46 49 54 57 60 63 69 75 83 91 95 97 98 99 100 100 100 99 98 100 104 106 106 105 103 103 103 103 102 100 98 96 93 90 87 84 81 78 74 70 65 60 56 53 51 49 48 47 47 46
18 18 19 19 20 21 22 22 23 22 22 23 24 25 25 26 29 33 45 62 63 58 59 58 53 53 51 46 41 38 38 38 40 49 56 51 48 52 56 59 62 66 71 78 85 92 97 99 100 101 102 103 103 102 100 102 104 106 107 106 103 103 102 102 102 100 99 97 95 91 88 84 81 77 72 67 63 59 55 52 51 49 47 46 45 44
17 18 19 20 20 21 22 22 23 23 25 25 24 25 25 25 27 27 37 57 66 64 64 63 60 59 57 51 44 39 38 37 40 51 56 52 51 56 59 62 65 68 73 79 87 94 98 98 99 99 100 101 101 101 101 102 104 105 105 104 103 104 103 100 100 98 97 95 93 90 87 83 79 75 70 65 61 58 56 53 51 49 47 46 45 44
17 17 19 19 20 21 22 23 24 24 26 27 26 26 26 25 27 25 29 46 60 65 67 67 67 66 61 53 44 40 39 36 40 52 55 50 52 57 60 64 67 70 76 84 92 98 100 99 98 98 98 98 99 99 100 101 103 104 102 101 101 103 104 102 100 99 97 96 94 91 88 83 79 74 69 65 62 59 56 53 51 50 48 46 46 46
16 17 18 18 19 20 21 23 24 25 26 28 27 28 27 26 28 26 27 37 51 63 70 72 73 73 65 55 46 41 40 37 40 52 54 48 51 55 58 63 67 71 79 87 95 100 101 101 100 99 98 97 97 97 98 99 102 102 101 100 101 102 103 103 102 100 99 98 95 92 89 84 79 74 70 67 63 60 58 55 53 52 50 48 49 51
15 15 17 17 17 18 19 21 23 24 26 28 29 30 29 28 29 28 27 32 43 59 72 77 79 78 71 59 49 43 42 39 41 52 54 48 48 51 53 58 63 69 78 88 96 100 101 102 103 102 101 98 96 96 96 98 100 101 100 100 101 102 104 104 102 101 101 99 96 92 89 84 78 74 71 68 65 62 59 56 54 53 52 52 53 55
14 14 15 15 15 16 17 19 20 21 24 27 29 30 30 29 30 30 29 31 39 55 72 80 82 82 76 65 53 48 49 45 42 50 56 51 48 49 50 54 60 67 77 86 93 97 99 102 105 105 103 99 97 97 97 98 100 101 100 101 101 104 106 104 102 103 103 101 98 94 90 86 81 77 73 69 67 65 61 58 56 56 56 57 58 59
13 13 13 13 14 15 16 17 19 21 23 26 28 29 30 31 32 32 31 33 38 53 71 82 87 88 80 69 57 52 56 55 47 47 51 50 50 51 52 56 63 72 81 87 90 91 93 100 106 106 103 101 99 97 97 100 102 102 100 100 101 105 107 105 103 105 105 103 100 97 94 89 84 79 75 72 69 67 64 60 59 60 61 62 63 63
13 13 13 13 13 15 15 16 20 22 23 26 28 29 30 33 34 32 32 36 40 52 69 84 94 95 86 74 61 52 52 53 49 46 46 48 52 56 59 61 66 76 84 87 88 86 87 95 104 107 105 103 100 98 98 100 103 104 103 103 104 106 108 107 106 107 106 104 102 100 97 93 87 82 78 75 72 69 67 64 63 65 67 66 67 64
13 13 13 12 14 16 15 15 20 24 25 26 28 29 31 33 35 34 32 35 40 51 70 87 98 101 92 74 60 50 46 47 48 46 46 49 53 59 64 67 70 77 83 84 84 83 84 91 101 106 107 106 101 99 100 101 103 104 104 105 106 106 107 107 107 106 106 105 104 102 100 96 91 87 82 79 76 73 71 69 69 71 72 70 68 63
13 13 13 12 14 16 15 15 19 22 24 26 28 30 30 33 37 36 32 33 38 50 70 88 100 103 90 66 50 46 45 45 46 45 46 50 55 61 65 68 72 78 82 84 85 83 85 94 100 103 107 107 102 100 101 102 104 104 103 105 106 106 107 107 105 105 106 106 104 103 102 99 96 92 87 84 81 78 76 75 76 77 77 75 70 62
12 13 13 13 14 15 14 16 19 21 23 27 28 29 30 33 38 38 33 32 38 50 72 91 101 101 84 58 45 45 45 44 44 45 45 49 55 60 63 65 69 75 80 84 85 84 88 97 101 102 106 106 102 100 102 103 104 104 103 105 105 105 106 106 105 107 107 104 102 102 102 101 99 96 92 89 86 83 82 82 82 82 82 78 71 63
13 14 16 16 17 18 17 19 22 23 24 27 29 30 31 34 39 40 35 33 38 52 75 94 102 96 76 54 44 45 45 43 43 43 45 48 53 57 59 61 66 71 76 81 84 84 89 97 101 103 105 105 102 100 101 103 105 103 102 103 104 104 105 105 105 107 106 102 101 101 101 101 101 99 97 95 91 88 88 87 87 87 86 80 72 66
16 17 20 21 22 25 25 24 26 28 26 27 30 32 32 35 40 41 36 34 39 56 80 98 103 92 68 50 45 45 44 42 41 41 44 47 50 53 54 56 60 66 72 78 81 85 91 97 101 102 103 104 103 102 100 101 103 102 101 102 103 104 105 103 102 104 103 101 101 101 100 101 102 102 102 100 96 94 94 92 91 90 87 80 73 70
19 20 24 25 26 28 29 29 31 32 28 27 32 35 34 37 42 42 37 35 40 59 84 102 103 86 61 47 46 45 42 41 40 39 41 44 47 48 48 49 53 59 68 75 80 86 95 100 102 103 103 102 101 100 100 101 101 100 99 100 103 105 104 102 101 101 102 101 101 100 100 101 103 103 103 102 101 101 101 98 95 94 90 81 74 73
22 22 25 28 29 29 31 33 36 37 32 30 35 38 38 41 45 43 38 35 42 63 89 105 100 78 54 46 47 45 42 41 39 38 39 41 44 44 43 44 47 53 63 72 79 89 97 101 102 103 104 103 101 100 101 101 101 100 98 100 102 103 102 101 100 101 101 101 100 100 100 100 101 102 102 101 103 105 106 102 98 97 93 84 77 75
22 22 24 29 32 31 31 34 37 39 39 39 41 43 44 45 47 44 38 36 45 68 94 104 92 67 49 46 47 44 41 40 39 38 39 39 41 42 41 42 45 51 61 70 79 91 99 102 102 101 101 102 101 100 100 101 101 100 99 100 101 101 100 100 100 101 101 101 100 100 100 100 101 102 101 101 104 108 109 105 102 98 94 88 83 80
24 24 25 28 31 30 29 31 33 37 41 44 45 46 46 46 47 44 39 38 50 76 100 102 81 57 47 47 46 43 41 41 39 39 38 39 40 40 40 41 45 51 60 69 80 92 100 102 102 101 100 100 101 100 101 101 100 100 100 100 101 100 100 100 100 100 101 101 100 100 100 100 101 101 101 101 104 107 109 109 107 102 94 87 84 82
27 26 25 27 30 31 31 32 33 35 39 43 45 46 46 47 48 44 39 39 55 84 104 97 72 52 47 47 45 42 42 41 40 39 39 39 39 40 41 43 46 52 60 71 83 95 101 101 101 101 100 100 100 100 100 101 100 100 100 100 100 100 100 101 101 100 100 100 100 100 100 100 100 100 100 101 103 105 106 107 109 108 103 94 86 82
Wind_Speed
33 33 34 34 34 35 35 36 36 37 38 39 40 41 42 42 42 43 44 45 45 46 46 47 48 48 48 48 47 47 47 48 48 49 50 51 52 52 53 53 53 54 54 54 54 54 54 54 55 55 55 56 56 56 57 57 58 58 59 59 59 59 59 59 59 59 59 59 59 60 60 60 61 61 61 61 62 62 63 64 65 66 66 66 66 66
32 33 33 34 34 35 35 36 37 37 38 39 40 41 42 43 43 43 44 45 45 46 46 46 48 48 48 48 47 47 47 48 48 49 50 50 51 51 52 53 53 53 54 54 54 54 54 54 54 54 54 54 55 55 56 56 57 57 58 58 58 58 58 59 59 59 59 59 60 60 60 61 61 62 62 62 63 64 65 66 66 67 67 67 66 66
33 33 34 34 34 35 35 36 36 37 38 39 39 40 41 42 42 42 43 44 45 46 46 47 48 49 49 49 48 48 48 48 48 48 49 49 50 51 51 51 52 52 52 52 52 52 52 53 53 53 54 54 54 55 55 56 56 57 58 58 58 58 59 59 59 59 59 59 60 60 61 61 62 63 63 64 64 65 66 66 66 67 66 67 67 67
31 31 32 32 33 34 34 34 35 36 37 38 38 39 40 42 43 43 44 44 45 46 47 48 50 50 49 48 48 48 48 47 48 48 49 49 50 50 50 50 50 50 51 51 51 52 52 52 53 53 54 54 55 55 56 56 57 57 58 58 59 59 59 60 60 60 60 60 61 61 62 63 64 64 65 65 66 66 66 66 66 66 66 67 67 68
28 28 29 30 31 32 33 34 35 36 37 38 39 41 42 42 43 45 45 46 46 46 47 47 49 50 49 48 48 48 48 48 49 49 49 50 49 49 50 50 50 50 51 51 52 52 53 53 54 54 54 55 55 56 56 57 57 58 58 59 60 60 61 61 61 62 62 62 63 63 64 65 65 66 66 66 66 65 65 66 66 67 67 68 69 70
27 28 29 30 31 33 34 35 36 37 38 39 40 41 42 42 43 44 44 45 45 46 46 47 49 51 50 49 49 49 50 50 50 50 50 50 50 50 51 51 51 52 52 52 53 53 53 53 54 54 54 55 55 56 56 57 57 58 59 60 61 61 62 62 62 63 63 64 64 65 65 66 66 66 66 66 66 66 67 67 68 69 70 70 71 72
28 29 31 32 33 34 36 37 37 38 38 39 39 40 41 41 42 43 44 45 45 46 47 48 50 53 53 52 52 52 52 52 51 51 51 52 52 52 52 52 52 52 52 52 52 52 52 52 52 53 53 54 55 55 55 56 56 57 58 59 60 60 61 61 62 62 63 64 64 65 65 66 66 66 66 66 67 67 68 69 69 70 71 71 72 72
29 30 31 32 33 34 35 36 37 37 38 39 39 40 41 42 43 44 45 46 47 48 49 50 52 54 54 54 53 53 53 52 52 53 53 54 54 54 54 53 53 52 52 51 51 51 51 51 51 52 52 52 52 52 53 54 55 56 57 58 58 59 60 61 62 62 63 64 64 65 65 66 66 67 68 68 69 69 69 70 70 71 72 73 74 74
28 29 31 32 33 34 35 36 37 38 39 40 41 42 43 44 45 46 47 48 49 50 51 51 51 52 54 53 53 53 53 53 54 54 54 54 54 53 53 52 52 52 51 51 51 50 50 50 50 50 50 50 50 51 52 53 54 55 57 58 58 59 60 61 62 63 64 65 65 66 66 67 68 69 69 70 70 71 71 72 73 73 74 75 76 77
29 30 32 33 34 35 37 38 40 41 42 43 44 45 45 46 47 48 49 49 50 50 50 50 50 51 53 53 52 52 53 53 53 53 53 52 52 52 51 51 51 50 50 50 49 48 48 48 48 48 48 49 50 51 52 53 55 56 58 59 60 61 62 63 64 65 66 67 68 68 69 69 70 70 71 71 72 73 73 74 75 75 76 77 78 78
31 32 34 35 36 37 39 40 42 43 44 46 46 47 47 48 48 48 48 48 47 47 47 48 48 48 50 51 50 50 51 51 51 51 51 51 51 51 51 50 49 48 48 47 46 46 47 47 48 48 49 50 51 52 53 55 56 58 60 61 62 63 64 66 67 68 69 70 70 71 71 72 72 73 73 74 74 75 76 76 77 77 78 79 79 80
33 36 37 38 39 40 40 41 43 44 45 47 48 48 48 48 48 47 47 46 45 45 45 45 45 45 46 47 48 48 48 49 49 50 50 50 50 49 48 48 47 46 46 46 47 47 48 49 49 50 51 53 54 55 56 57 59 60 62 63 64 65 67 69 70 71 72 72 73 73 74 74 75 75 76 76 77 77 78 78 79 79 80 80 81 81
35 37 39 40 41 41 41 42 43 44 45 47 48 49 49 49 49 49 48 47 46 45 45 44 45 44 44 44 45 47 48 48 48 49 49 49 48 47 46 46 46 46 46 47 47 48 49 50 51 52 53 55 56 57 58 60 61 63 64 65 67 68 69 70 71 72 74 74 75 76 76 77 77 78 78 79 79 80 80 80 81 81 82 82 82 83
36 37 38 39 40 41 43 44 46 46 47 48 48 49 50 50 50 50 50 49 48 47 46 46 45 45 44 45 46 47 48 49 49 49 49 47 46 46 45 45 46 46 45 45 46 47 48 49 51 53 55 56 58 59 61 62 64 65 66 67 69 70 71 72 74 75 76 77 77 78 79 80 81 81 81 82 82 83 83 83 84 84 84 84 84 85
39 40 42 42 43 44 45 45 45 45 45 45 45 45 45 44 45 46 46 47 48 47 46 45 45 45 46 47 48 49 49 49 49 48 47 46 46 46 45 45 44 42 42 43 45 47 49 51 53 55 57 59 60 62 64 66 67 68 69 70 72 73 74 76 77 77 78 80 81 82 82 83 84 84 84 85 85 85 86 86 86 86 86 86 87 87
42 44 45 45 45 45 44 43 42 42 42 41 41 41 40 40 41 41 41 42 44 44 44 44 45 45 46 47 48 48 48 48 48 47 46 46 46 46 46 45 42 40 40 42 44 47 49 52 55 57 59 61 63 65 67 69 70 72 73 74 75 77 78 79 79 80 81 82 83 83 84 84 84 85 85 85 86 86 87 87 87 87 88 88 88 88
42 43 42 42 42 42 41 42 42 42 41 40 40 40 40 40 40 40 40 41 42 43 43 43 45 46 45 46 45 45 45 45 46 46 45 45 45 46 47 47 45 45 45 46 48 49 51 53 56 58 60 62 65 66 68 70 72 73 75 76 77 78 79 80 81 81 82 82 83 83 84 84 85 85 86 86 87 87 87 88 88 88 88 89 89 90
42 41 40 40 39 39 40 41 41 40 39 39 40 40 40 41 41 42 43 43 44 45 44 45 46 46 46 46 46 45 44 44 44 44 44 44 45 46 48 49 49 50 50 51 52 53 55 56 58 60 62 64 65 67 68 70 71 73 74 76 77 78 79 80 80 81 82 82 83 84 84 85 86 86 87 87 87 88 88 89 89 89 89 90 90 90
40 39 39 38 39 39 39 38 37 37 38 39 40 41 41 42 43 44 45 46 47 48 47 47 47 47 47 48 48 47 45 44 43 43 44 46 47 48 49 50 51 52 54 55 57 58 60 61 62 63 65 66 67 69 70 71 73 74 75 76 77 78 79 80 81 82 83 83 84 85 86 86 87 87 88 88 88 89 89 89 89 89 89 89 89 89
38 38 38 38 39 38 37 36 36 37 38 39 40 40 41 43 44 44 45 46 48 48 49 48 47 48 48 48 47 47 46 45 43 42 42 44 46 49 51 52 53 55 56 58 59 61 62 63 64 65 67 68 69 71 72 73 75 76 77 78 79 80 81 82 83 84 85 87 87 88 88 88 88 89 88 88 88 88 88 88 88 88 87 87 87 88
38 38 38 38 38 37 37 38 39 40 40 41 41 42 43 44 44 44 45 46 47 48 49 49 48 47 49 48 47 46 46 45 44 43 42 41 42 44 47 51 55 57 60 62 64 65 66 67 69 70 71 72 74 75 77 78 80 81 82 83 84 85 86 87 88 89 89 89 89 89 88 88 87 87 86 86 86 85 85 84 84 84 84 83 84 84
38 38 39 38 37 37 38 39 40 41 42 43 43 44 45 45 45 46 47 47 47 47 48 49 48 47 48 48 47 47 46 46 45 45 45 44 44 43 44 46 49 52 56 59 62 65 68 70 72 74 75 77 77 78 79 79 80 81 82 82 83 84 84 84 84 84 84 84 84 83 83 83 82 82 81 80 80 80 79 79 79 79 79 78 79 79
38 38 38 38 38 39 39 40 41 41 42 42 42 43 44 45 45 46 47 47 46 46 47 49 48 47 49 49 48 47 47 47 47 47 47 48 48 48 48 48 48 49 50 52 54 56 58 61 63 65 67 69 70 71 71 72 72 72 72 72 73 73 73 73 73 74 74 74 75 75 75 75 75 74 74 74 74 74 74 74 74 75 75 75 75 75
38 38 38 38 37 38 38 39 40 41 41 41 41 42 43 45 45 45 46 47 46 46 47 48 48 48 49 49 49 49 49 49 49 49 49 50 50 51 51 51 52 52 52 53 53 54 55 56 57 58 59 60 62 63 65 66 67 67 68 67 67 66 66 66 67 67 67 67 67 68 68 68 68 68 69 69 69 70 70 71 71 71 72 72 72 73
39 38 38 38 38 38 39 40 40 40 40 40 40 41 42 44 44 45 45 46 46 46 45 47 48 47 48 49 49 49 49 49 50 50 51 52 53 53 54 54 54 55 55 56 56 56 56 56 56 57 57 58 59 60 61 63 64 64 65 65 65 64 63 63 63 62 62 62 62 62 62 62 63 63 64 64 65 66 66 67 67 68 69 69 70 71
39 38 39 39 39 40 41 41 41 41 41 40 41 41 42 43 43 44 45 45 47 46 45 46 47 46 47 49 50 49 50 50 51 52 53 54 55 56 56 56 57 57 58 58 59 59 58 58 58 58 58 59 59 59 60 61 62 63 63 63 63 63 63 62 62 61 60 60 60 59 60 60 61 61 62 62 63 63 64 65 65 66 67 68 68 69
39 39 39 39 39 39 39 40 40 40 40 40 41 41 42 43 43 44 45 45 47 48 46 46 48 48 47 50 51 51 51 52 53 54 55 56 57 58 58 59 59 59 60 60 60 61 60 60 60 59 59 59 59 59 59 60 61 61 62 62 62 61 61 61 61 61 61 61 60 60 60 60 60 61 61 61 62 62 63 63 64 65 66 67 68 70
38 38 38 38 38 38 38 38 38 38 38 39 40 41 43 44 44 45 46 47 48 49 48 48 49 49 49 50 51 52 52 53 54 55 56 57 58 59 60 60 61 62 62 62 62 62 62 62 62 61 60 59 59 59 60 60 60 60 60 61 61 61 60 60 60 60 60 60 60 59 59 59 60 60 60 60 61 62 63 64 65 66 68 69 70 72
37 37 38 38 37 38 38 38 37 37 38 38 40 42 43 44 45 45 46 47 48 49 49 49 49 50 50 51 51 51 52 53 54 55 56 58 59 60 60 61 62 63 64 64 64 63 63 63 63 62 61 60 59 59 60 60 60 59 59 59 59 60 60 59 59 59 59 59 59 58 59 59 59 60 61 61 62 63 64 65 66 67 68 69 71 72
37 37 37 37 37 37 38 38 38 37 38 39 41 42 44 44 45 45 46 47 49 50 50 50 50 49 50 51 51 52 52 53 54 55 56 58 59 60 60 61 62 63 64 65 65 64 64 64 64 63 62 61 60 60 60 60 60 59 59 59 58 58 58 58 58 58 58 58 58 58 58 59 59 60 61 61 62 63 64 65 66 67 68 70 71 72
37 37 37 37 37 38 39 39 39 39 39 40 42 43 44 45 46 46 47 47 50 51 51 51 51 51 51 51 52 53 53 53 54 55 56 58 60 60 61 62 63 63 64 65 65 65 65 64 64 64 63 62 61 60 59 59 59 59 59 58 58 57 57 57 57 57 57 58 58 58 58 58 59 59 60 60 61 63 64 65 67 68 69 70 72 73
38 38 38 38 38 39 40 41 41 41 41 41 43 45 46 47 47 48 48 48 51 53 52 52 53 53 53 53 53 54 55 55 55 56 58 60 61 62 62 63 64 65 65 66 65 65 65 65 65 64 63 62 60 60 59 59 59 59 59 59 58 57 57 57 57 57 57 57 57 57 57 58 58 59 60 61 62 63 65 66 67 68 69 71 72 73
39 40 40 40 40 41 42 42 42 43 43 43 45 47 49 50 50 50 50 49 53 55 55 54 54 54 55 55 54 55 56 57 57 58 60 62 62 63 64 65 66 66 66 67 66 66 65 65 65 64 63 62 60 59 59 59 58 58 58 58 58 57 57 57 57 57 57 57 58 58 58 59 59 60 61 62 63 64 66 67 68 69 70 71 72 73
40 41 41 42 42 42 43 44 44 45 46 47 47 49 51 52 53 53 52 51 54 56 56 56 56 55 56 56 56 56 56 57 58 58 61 63 63 64 65 66 67 68 68 68 67 67 67 66 65 65 64 62 61 59 59 59 58 58 58 57 57 57 57 57 57 57 57 58 59 59 60 60 60 61 62 63 64 65 67 68 69 70 71 71 72 72
40 42 42 43 44 45 45 46 46 47 48 49 49 50 52 53 54 55 54 53 56 58 58 58 58 57 58 57 57 58 58 59 59 59 61 64 64 65 66 67 68 68 69 69 68 68 67 67 66 65 64 63 61 59 59 59 58 58 58 57 57 57 57 57 57 57 58 58 59 60 61 61 61 62 63 64 65 66 67 69 69 70 71 71 71 71
41 43 44 44 45 47 48 48 48 48 48 50 51 51 52 54 55 57 56 54 56 60 60 60 60 59 59 59 59 59 60 61 60 60 63 65 66 66 67 68 69 69 69 70 69 68 67 67 66 65 64 62 61 59 58 58 58 58 58 57 57 57 57 57 57 57 58 59 60 61 61 61 61 62 63 64 65 66 68 68 69 70 70 69 69 69
42 43 45 45 47 48 50 50 50 50 50 52 53 53 54 55 57 59 59 57 58 61 62 62 61 61 60 60 60 60 62 63 62 62 64 66 66 67 68 69 70 70 70 70 69 68 67 66 66 65 63 62 61 59 58 58 58 58 57 57 57 57 57 57 57 58 59 59 60 61 62 62 62 62 63 64 65 67 68 68 68 69 69 68 67 66
42 44 45 47 48 49 51 52 52 53 54 55 56 56 56 57 58 60 61 60 60 62 63 64 63 62 62 62 61 62 63 65 65 64 66 68 67 68 69 69 70 71 71 71 70 69 68 67 65 65 63 62 60 59 58 57 57 57 57 57 57 57 58 58 58 59 59 60 61 62 62 62 63 63 64 65 66 67 68 68 68 68 67 66 64 62
43 44 45 47 48 49 51 53 54 54 55 57 57 57 58 58 59 61 62 62 62 63 65 66 65 65 64 64 64 64 66 67 67 67 69 71 70 70 71 71 72 73 72 72 71 70 69 67 66 65 63 62 60 59 58 57 57 57 57 57 57 57 58 58 59 60 60 61 62 63 63 63 63 64 64 65 66 67 68 67 67 66 65 63 62 60
43 45 46 47 49 50 51 53 53 53 54 57 58 58 59 60 60 62 64 65 65 65 66 68 68 67 66 66 66 66 67 70 70 69 70 72 73 73 73 74 74 74 74 73 72 71 69 67 66 65 63 62 61 59 58 57 57 57 57 57 57 58 58 59 59 60 61 62 63 63 63 64 64 64 65 65 66 67 67 67 65 64 63 61 59 59
44 45 46 48 49 50 51 53 54 54 54 56 58 59 60 61 62 63 65 65 66 67 68 69 69 69 68 68 67 67 68 70 72 72 72 73 73 74 75 75 75 75 75 74 73 71 69 67 66 64 63 62 61 59 58 57 57 57 58 58 58 58 59 59 60 61 62 63 63 64 64 65 65 65 65 66 66 66 66 66 64 62 60 59 58 58
45 46 47 48 50 50 51 53 55 55 55 56 58 59 60 62 63 64 64 65 65 67 69 70 70 70 69 68 68 68 68 69 71 73 74 74 74 74 75 76 76 75 75 74 72 71 69 67 65 64 63 62 61 60 58 58 57 58 58 58 58 58 59 60 60 61 63 63 63 64 64 65 65 65 65 66 66 65 65 64 62 60 59 58 57 56
46 47 48 49 51 51 51 53 56 57 56 57 59 60 61 62 63 64 64 64 65 67 69 70 71 70 69 68 67 68 70 71 72 73 74 75 75 75 76 76 76 76 75 74 72 71 69 66 65 64 63 62 61 60 59 58 57 58 58 59 58 58 59 60 61 62 63 63 63 64 64 65 65 65 65 65 65 65 63 62 60 59 58 57 56 55
46 48 49 50 51 52 51 52 54 55 56 57 59 60 61 62 64 65 65 66 66 68 70 71 71 71 70 69 69 70 71 73 74 75 75 76 76 76 77 77 77 76 75 74 72 71 69 66 64 63 63 62 62 60 59 58 58 58 59 59 59 59 59 60 62 63 63 63 63 64 64 64 64 65 65 65 64 63 62 60 58 57 57 56 55 54
46 48 49 50 51 51 50 52 54 54 54 57 59 60 61 63 65 66 67 67 68 69 71 72 72 71 71 70 71 72 73 74 76 76 77 77 77 78 78 78 77 77 76 74 72 71 68 66 65 63 62 62 62 61 60 59 58 58 59 59 59 59 59 61 62 62 62 63 63 63 63 63 63 64 64 64 63 62 60 58 57 56 56 55 54 53
46 48 49 50 51 51 51 52 55 54 53 56 59 60 62 64 65 66 67 68 69 70 72 73 73 72 71 71 72 74 75 76 77 78 78 78 79 79 79 79 78 77 76 74 73 71 68 66 65 63 63 63 63 62 61 60 59 59 59 59 59 59 60 61 62 62 62 62 62 62 62 62 62 63 63 63 62 60 58 57 56 56 56 54 53 52
46 48 50 50 52 53 53 54 56 55 54 56 59 61 63 65 66 67 68 68 69 71 72 73 74 73 72 72 74 76 77 78 79 79 79 79 80 80 79 79 78 77 76 74 73 70 68 66 65 64 63 63 63 63 61 60 61 60 60 60 60 60 61 61 61 61 61 61 61 61 61 61 61 61 62 61 60 58 56 56 56 56 55 53 51 51
47 49 50 52 52 53 54 55 57 56 55 57 60 62 63 66 67 67 68 69 70 72 73 74 74 73 72 73 75 77 78 79 80 81 81 80 81 81 80 80 78 77 75 74 72 70 68 66 65 64 63 63 63 62 61 61 61 62 61 61 61 61 61 61 60 60 60 60 60 60 60 60 60 60 60 60 58 56 55 55 55 55 54 53 51 50
48 49 51 53 54 54 55 57 59 58 57 57 61 63 65 67 68 68 69 70 71 73 74 74 74 73 73 75 77 79 80 81 82 83 83 82 82 82 81 80 79 77 75 74 72 70 67 66 65 64 64 63 63 62 61 61 62 62 62 62 61 61 61 60 59 59 59 59 59 59 59 59 59 59 59 58 55 54 54 55 55 54 53 51 51 50
48 50 52 54 56 56 57 59 60 62 62 61 63 65 66 68 70 70 71 72 73 74 75 75 74 73 74 76 78 80 82 83 83 84 84 84 83 83 82 81 79 77 75 74 72 69 67 66 65 65 64 64 63 62 61 62 63 63 63 62 61 61 60 59 58 58 59 59 58 58 58 58 58 59 58 56 53 52 52 53 55 55 53 50 49 49
49 51 52 55 57 57 58 60 61 62 64 65 65 66 68 70 71 72 72 73 74 76 77 76 75 74 75 77 80 82 84 85 85 86 86 86 85 84 83 81 79 77 75 74 71 69 67 66 65 65 65 64 63 63 62 63 64 64 62 61 60 60 59 58 58 57 58 58 57 57 57 57 57 57 56 54 52 51 50 50 52 53 54 52 49 47
Wind_Direction
291 291 290 290 291 291 291 291 292 292 291 291 290 290 290 290 289 290 290 290 289 289 289 289 288 288 288 288 287 287 287 287 287 286 285 284 284 283 283 282 282 282 281 281 281 281 280 280 279 278 278 277 277 276 275 275 275 275 274 274 274 274 274 274 274 274 274 273 273 273 273 273 272 272 271 271 271 271 270 271 271 271 271 271 271 271
293 293 293 293 293 293 293 293 293 293 292 291 291 291 291 291 291 291 291 291 291 291 290 290 289 289 289 289 289 289 288 288 287 286 286 285 285 284 283 283 282 282 282 281 281 280 280 279 278 278 277 276 276 275 275 275 274 274 274 274 274 274 274 274 274 273 273 273 273 273 272 272 272 271 271 271 271 271 271 271 271 271 271 271 270 269
295 295 296 295 295 295 295 294 294 293 293 293 293 293 293 292 292 292 292 292 293 293 292 291 290 290 290 290 290 290 289 289 288 287 286 286 285 285 284 284 283 283 282 282 281 280 279 279 278 277 276 276 275 275 274 274 273 273 273 273 273 274 273 273 273 273 273 273 272 272 271 271 271 271 271 271 271 271 271 271 271 271 270 270 269 268
298 298 297 297 296 296 296 295 295 295 295 295 295 295 295 295 295 295 294 294 295 295 294 293 292 292 291 292 292 291 291 290 289 288 287 287 286 285 285 284 283 283 282 281 280 279 278 277 277 276 275 275 274 274 273 273 273 273 273 273 273 273 272 272 272 272 271 271 271 270 270 270 270 270 271 271 271 271 271 271 270 269 269 268 268 268
301 300 300 299 298 299 298 298 298 298 299 298 298 298 298 299 299 298 297 296 296 296 296 296 294 293 292 293 293 292 292 291 290 289 288 288 287 286 285 284 283 282 281 280 279 278 277 276 275 275 274 274 273 273 273 272 272 272 272 272 272 271 271 271 271 271 271 270 270 270 270 270 270 271 271 271 271 270 270 269 269 269 268 268 268 269
304 304 303 303 303 303 302 302 302 301 301 301 301 301 301 301 301 300 300 299 299 298 297 297 296 293 293 293 293 293 292 291 290 290 289 288 287 286 285 284 283 282 281 280 279 278 277 276 275 275 274 273 273 273 272 272 272 272 272 272 272 272 272 272 272 271 271 271 270 270 270 269 270 270 270 270 270 270 270 270 270 270 270 270 270 270
307 307 307 307 306 306 306 306 305 305 305 304 303 303 302 302 301 301 300 299 299 298 298 297 296 295 294 294 294 293 292 292 291 290 289 288 287 286 285 285 284 283 282 281 280 279 278 277 276 276 275 274 274 274 274 274 273 273 273 273 273 273 273 272 272 271 271 270 270 270 269 269 269 269 270 270 271 271 272 272 272 272 272 272 271 271
311 310 310 311 311 311 311 310 308 307 306 304 303 303 302 301 300 300 299 299 299 298 298 297 296 296 295 294 294 293 293 292 291 290 289 288 287 287 286 286 285 284 283 282 281 281 280 279 278 278 277 277 277 276 276 275 275 274 274 274 274 273 273 273 272 271 271 270 270 270 270 270 270 270 270 271 271 272 272 272 272 272 272 272 272 272
317 316 317 316 315 313 311 309 307 306 305 303 303 302 301 301 300 300 300 299 299 299 299 298 297 296 295 295 294 294 293 292 291 290 290 289 288 287 287 286 285 285 284 284 283 282 282 281 280 279 279 278 277 276 276 275 275 275 274 274 274 274 273 273 273 272 272 271 271 271 271 271 271 271 271 271 272 272 272 272 272 272 273 273 273 273
321 320 318 315 313 311 309 308 306 305 304 303 303 302 302 301 301 301 301 301 301 301 300 299 299 298 297 296 296 295 294 293 293 292 291 291 290 289 288 287 286 286 285 285 284 283 282 281 280 279 278 277 276 276 275 275 275 275 274 274 274 274 274 273 273 273 273 272 272 272 272 272 273 273 273 273 273 273 273 273 273 274 274 274 274 274
319 316 313 312 311 310 308 307 306 305 305 304 304 303 303 303 302 303 303 303 303 303 302 303 303 303 302 300 300 299 297 296 295 294 293 292 291 290 290 289 288 288 286 285 283 282 280 280 279 278 278 277 276 275 275 274 274 275 275 275 275 275 274 274 274 274 274 273 273 274 274 274 274 274 274 274 275 275 275 275 275 275 275 276 276 275
313 312 312 311 310 309 308 308 307 307 307 307 307 306 306 306 305 306 305 306 308 308 308 309 308 308 306 304 302 301 299 298 297 296 294 293 292 291 291 290 289 288 287 285 284 283 282 281 280 279 278 277 276 275 274 274 275 275 275 275 275 275 275 275 275 275 275 275 275 275 275 275 275 275 276 276 276 276 276 276 276 276 277 277 277 277
313 312 312 310 309 308 308 309 310 310 310 310 310 310 310 310 311 312 313 313 314 314 315 314 313 311 308 306 304 302 300 299 298 296 295 294 294 293 293 293 292 291 291 290 289 287 286 284 282 280 278 277 277 276 275 275 275 275 275 275 275 276 276 276 276 276 276 277 277 276 276 276 276 276 276 276 276 276 276 276 277 277 277 277 277 277
314 313 312 311 311 312 312 313 314 315 316 317 318 319 320 320 319 319 319 319 319 319 320 318 316 313 309 306 304 301 300 299 298 297 297 296 296 295 296 296 295 295 294 292 289 286 284 282 280 279 279 278 277 277 276 276 276 275 276 276 276 276 276 276 276 276 276 276 276 276 276 276 276 276 276 276 276 276 276 277 277 277 277 277 277 277
318 318 317 318 319 320 321 322 323 324 325 326 327 328 329 328 327 326 327 326 325 326 326 324 321 317 314 311 309 306 305 303 301 300 299 299 299 298 298 297 295 294 291 288 285 283 282 281 280 279 279 278 278 277 276 276 276 275 275 275 275 275 275 275 275 275 275 275 276 276 276 276 276 276 276 276 276 277 277 277 277 277 277 277 278 278
322 323 324 325 326 328 329 330 331 332 333 334 335 333 333 335 336 336 336 335 333 332 333 332 328 325 323 320 317 315 312 309 307 305 304 303 302 301 299 295 290 287 285 283 282 282 281 281 281 280 279 279 278 278 277 277 277 277 276 276 276 276 276 276 276 276 276 276 276 276 277 277 277 277 277 277 277 277 278 278 278 278 278 279 279 279
328 329 331 332 333 334 334 335 337 338 339 339 338 338 341 344 344 343 342 341 340 340 340 338 334 333 333 329 327 325 322 317 314 311 309 307 306 305 301 295 289 285 282 280 279 278 277 278 278 278 278 277 277 277 277 277 277 277 277 277 277 277 277 277 277 277 277 277 277 277 277 277 278 278 278 278 279 279 280 280 280 280 280 280 280 280
333 335 336 337 338 339 340 342 343 343 342 341 342 345 349 349 346 345 345 344 344 344 344 343 340 340 340 338 337 336 333 328 321 316 314 313 311 307 303 297 291 287 284 280 278 277 276 276 275 275 275 275 275 275 274 275 275 275 276 275 275 276 276 276 276 276 276 277 277 278 279 279 280 280 281 281 282 282 282 283 283 283 283 282 282 281
337 339 341 342 343 343 346 347 345 343 344 345 348 350 350 348 347 348 347 346 346 345 346 347 345 343 344 344 342 342 340 337 331 323 317 314 311 307 303 298 293 289 286 283 281 280 278 277 276 275 274 274 274 274 274 274 274 274 275 275 276 276 276 276 277 278 279 280 280 281 282 283 283 284 284 285 285 285 285 285 285 284 284 283 283 282
343 344 345 345 346 346 346 345 342 344 347 349 349 349 349 348 348 348 347 347 347 345 346 348 346 343 344 345 344 343 343 342 338 331 320 312 306 303 300 297 294 292 290 287 285 283 282 280 279 278 277 276 276 276 276 276 276 277 277 278 279 279 279 280 280 281 282 283 284 284 285 285 286 286 286 286 286 286 285 285 285 284 284 283 283 282
347 348 348 348 348 346 344 344 345 346 347 347 348 348 348 348 348 347 347 347 348 347 346 347 346 344 343 343 343 343 343 343 341 338 332 324 316 309 303 298 295 292 290 289 288 287 286 285 284 283 283 282 282 282 282 282 282 282 282 282 282 283 283 284 284 284 285 285 286 286 286 286 286 286 286 285 285 284 284 284 283 283 283 283 282 282
349 349 349 348 347 345 344 345 347 347 347 347 348 347 346 347 347 347 347 348 348 347 346 345 344 344 342 341 341 342 341 341 341 339 337 334 331 326 320 313 308 303 299 296 294 293 292 291 290 290 290 290 290 290 290 289 289 289 288 288 288 287 287 287 287 287 286 286 286 286 286 285 285 285 284 284 284 284 283 283 283 283 282 282 281 281
350 350 349 348 346 345 345 345 346 346 347 347 346 345 345 346 346 347 347 347 346 346 344 343 343 342 340 339 340 340 339 339 339 338 336 335 334 332 330 327 324 321 316 312 308 305 303 301 300 299 298 297 297 297 297 296 296 296 295 295 294 294 293 292 291 289 289 288 287 287 286 286 286 285 285 285 285 284 284 284 283 283 282 282 282 281
350 350 349 348 345 344 344 344 344 345 345 345 345 345 345 345 346 347 346 345 344 344 342 340 340 340 338 338 339 338 338 338 337 336 335 333 333 332 331 330 329 327 324 322 319 316 313 310 308 306 305 303 302 301 300 299 299 298 298 298 298 297 297 296 295 294 293 292 291 290 289 288 287 287 286 286 285 285 285 284 284 284 283 283 283 282
350 350 349 347 345 344 344 344 344 345 345 345 345 345 345 345 345 345 344 343 341 341 340 338 338 339 336 336 337 336 336 336 335 334 333 332 331 330 330 330 329 328 326 325 323 321 318 316 313 310 309 307 306 305 303 301 300 300 299 298 298 298 298 297 296 296 295 294 293 291 290 289 289 288 288 287 287 286 286 286 286 285 285 285 285 284
351 350 349 348 347 347 346 345 345 346 345 346 346 346 345 345 345 344 343 341 339 339 339 336 335 336 334 333 334 334 334 334 333 333 332 331 330 329 329 329 328 327 325 325 324 323 322 319 317 314 311 310 308 307 305 304 302 301 301 300 299 299 298 297 297 296 295 294 293 292 291 291 291 290 290 290 289 289 289 288 288 288 287 287 287 286
351 351 350 350 350 349 348 347 347 347 348 348 348 347 346 346 346 344 343 341 338 337 338 335 333 334 333 332 333 333 333 333 333 332 331 330 329 328 328 328 326 325 324 324 324 323 322 321 319 316 314 312 310 308 307 305 304 302 302 301 300 299 299 298 297 296 295 294 294 293 293 293 293 292 292 292 291 291 291 290 290 290 289 289 288 287
353 352 352 352 351 351 351 350 349 349 349 349 348 347 347 347 347 345 343 341 337 336 337 335 333 333 332 332 332 332 332 332 332 331 330 329 328 327 327 326 325 324 324 323 323 323 322 320 319 317 316 313 311 309 308 306 305 303 302 301 300 300 299 298 298 297 296 296 295 295 295 294 294 294 293 293 293 292 292 291 291 290 290 289 288 288
354 354 354 354 354 354 353 352 351 351 351 350 349 348 348 347 347 346 344 341 337 336 337 336 334 333 332 331 331 331 332 332 331 330 329 328 327 326 326 326 325 324 323 323 322 322 320 320 319 318 317 315 313 311 309 307 306 305 304 302 301 300 300 299 298 298 297 297 297 296 296 295 295 295 294 294 294 293 293 292 292 292 291 291 290 289
356 356 356 357 357 356 356 355 354 353 353 352 350 348 347 347 348 347 344 341 338 337 337 336 334 334 332 331 331 331 331 331 331 330 329 327 326 326 326 326 325 324 323 322 321 321 320 319 318 317 317 316 314 312 310 308 307 306 305 304 303 302 301 300 300 299 299 298 298 297 297 296 296 296 295 295 295 295 295 294 294 294 294 293 293 292
358 358 358 358 358 357 357 356 355 355 355 352 350 349 348 348 349 348 346 342 337 338 339 337 335 334 333 332 331 331 330 331 331 330 328 326 326 327 327 326 325 324 323 322 321 320 320 318 318 317 316 315 314 313 311 309 308 307 306 305 304 304 303 302 301 300 300 299 298 298 298 297 297 297 297 297 297 297 297 297 297 296 296 295 294 294
358 358 358 358 358 357 356 356 355 354 354 353 351 350 349 349 350 350 349 344 338 338 339 338 337 336 334 332 332 331 331 331 331 331 329 327 327 328 327 326 325 324 323 322 322 320 319 318 317 316 315 314 314 313 312 310 308 307 306 305 305 304 304 303 302 301 301 300 300 299 299 299 299 299 299 299 299 299 299 299 299 298 297 297 296 295
357 357 356 356 356 355 354 354 353 351 352 352 351 350 349 349 350 351 352 347 339 339 340 339 338 337 334 332 332 332 332 331 332 332 329 327 328 328 328 327 326 325 324 323 322 320 319 318 317 316 315 314 314 313 312 311 309 308 306 306 305 305 304 304 303 303 302 302 301 301 301 301 301 301 301 301 301 301 301 301 301 300 300 299 298 298
355 355 355 354 354 353 353 352 351 350 350 350 350 349 347 348 348 349 352 348 341 341 341 339 338 337 334 333 332 332 332 331 332 332 329 327 329 329 328 327 326 325 324 323 322 321 320 319 318 317 316 315 314 313 313 312 310 308 307 306 306 305 305 304 304 303 303 303 303 303 302 302 302 302 303 303 303 303 303 303 303 303 302 301 300 300
353 353 353 352 351 351 350 350 350 350 349 347 347 347 345 345 345 346 350 349 342 342 342 339 339 337 335 333 332 332 332 332 333 333 328 328 330 329 328 327 326 325 324 323 323 322 321 320 319 318 317 316 314 314 313 312 311 309 308 307 307 306 305 305 304 304 304 304 304 304 303 303 304 304 304 305 305 305 305 305 305 304 304 303 302 301
351 351 351 350 349 348 348 349 348 348 347 345 345 345 344 343 343 343 347 348 343 342 342 340 339 338 335 333 332 332 332 333 334 333 329 329 330 329 328 327 326 325 324 324 323 322 321 320 319 318 317 316 315 314 313 312 311 310 309 308 308 307 307 306 306 306 305 305 305 305 305 305 305 306 306 306 307 307 307 306 306 305 305 304 304 303
350 349 349 348 348 347 346 346 346 345 344 344 344 344 343 343 342 341 343 346 344 342 342 341 339 338 335 334 333 333 332 333 335 333 330 330 330 329 328 327 326 325 325 324 324 323 321 321 320 318 318 316 315 314 313 313 312 311 310 309 308 308 308 307 307 307 307 307 307 307 307 307 307 308 308 308 308 308 308 308 308 307 306 306 305 304
348 348 347 346 346 346 344 344 344 344 344 343 343 343 342 342 341 339 341 344 343 342 341 341 339 338 335 334 333 333 333 334 335 334 330 330 331 329 328 327 326 326 325 325 324 323 323 322 321 319 318 317 316 314 313 313 312 311 310 310 309 309 308 308 308 308 308 309 309 309 309 309 309 309 310 310 310 310 310 309 309 308 307 307 306 305
347 347 346 345 345 344 343 342 342 343 342 341 341 341 341 341 340 338 339 341 342 341 341 341 340 338 336 335 334 334 333 334 336 334 331 330 331 330 329 329 328 327 327 326 325 325 324 323 322 320 319 318 316 315 314 314 313 311 311 310 310 309 309 309 309 309 309 310 310 310 310 310 310 311 311 311 311 311 310 310 310 309 308 307 306 305
345 345 345 343 343 343 342 340 340 342 341 339 339 340 340 340 339 338 339 340 341 340 340 340 339 338 336 335 335 335 335 334 334 334 332 331 331 330 330 329 329 328 327 326 326 325 324 324 322 321 319 318 317 316 315 314 313 312 311 311 310 310 309 309 310 310 310 310 311 311 311 311 311 312 312 312 312 312 311 311 310 309 308 308 307 307
343 343 343 342 341 342 341 338 338 341 340 338 338 339 339 339 339 338 339 339 339 339 339 339 339 338 336 335 335 336 335 334 333 333 332 331 331 330 330 329 329 328 327 326 325 325 325 324 323 321 319 318 318 317 315 315 313 312 311 311 311 310 310 310 310 310 310 311 311 312 312 312 312 312 313 313 313 312 312 311 311 310 309 308 308 309
341 341 342 341 340 341 340 337 337 340 341 338 337 338 339 339 338 338 338 338 338 337 338 338 338 337 336 335 335 335 334 333 332 332 332 332 331 330 330 329 329 328 327 326 325 324 324 324 322 321 319 318 318 317 316 315 314 312 311 311 311 311 311 310 311 311 311 311 312 312 312 312 313 313 313 313 313 313 312 312 311 310 309 310 310 310
339 339 341 340 339 340 340 337 337 339 340 338 336 337 338 338 337 337 337 338 337 337 337 338 338 336 335 334 334 334 334 334 333 332 332 332 331 331 330 329 328 327 326 326 325 324 324 324 322 320 319 318 318 317 316 315 314 312 311 311 311 311 311 311 311 312 312 312 312 313 313 313 313 313 314 314 314 313 313 312 311 310 310 311 312 312
339 338 339 339 338 340 341 337 336 338 338 336 335 336 337 337 336 336 337 337 337 337 337 338 337 336 334 333 334 334 335 334 333 333 332 332 331 330 330 329 328 327 326 325 324 324 324 323 322 320 319 318 317 317 316 315 314 313 312 312 312 312 311 311 312 312 312 312 313 313 313 313 313 313 314 314 314 314 313 312 311 311 311 312 313 313
338 337 338 338 338 339 339 336 335 337 337 334 333 335 336 336 336 336 336 336 336 337 337 337 337 335 334 333 334 335 335 334 334 333 333 332 331 330 330 329 328 327 326 325 324 324 323 322 321 320 318 317 317 317 316 315 314 313 313 312 312 312 312 312 312 312 312 312 313 313 314 314 314 314 314 314 314 314 313 312 311 311 312 313 314 313
337 336 337 337 336 338 338 335 334 337 337 334 333 334 335 335 336 336 336 336 336 336 337 337 336 335 334 333 334 334 335 334 334 334 333 332 331 331 330 329 328 327 326 325 324 323 323 322 321 319 318 317 317 317 316 315 314 314 313 313 313 313 312 312 312 312 312 313 313 314 314 314 314 314 314 314 314 314 313 312 312 312 313 314 314 314
336 335 336 336 336 337 337 335 334 337 337 334 333 334 335 334 335 336 336 335 336 336 336 336 335 334 333 333 334 334 335 335 334 334 333 332 331 330 330 329 328 327 326 325 324 323 322 321 320 319 318 317 317 317 316 315 314 314 314 314 314 313 312 312 312 312 312 313 313 314 314 314 314 314 314 315 314 314 313 312 312 313 313 314 314 314
335 335 335 335 335 336 335 334 334 337 337 334 333 334 334 334 335 336 335 335 336 336 336 336 335 334 333 333 333 334 334 335 334 334 333 332 331 330 330 329 328 327 326 325 324 323 322 321 320 319 318 317 317 317 316 315 314 314 315 315 314 313 312 312 313 313 313 313 314 314 314 314 314 314 314 315 314 314 313 313 313 313 314 314 314 314
334 334 334 334 334 335 335 334 334 336 336 334 333 334 334 333 334 335 335 335 335 336 336 336 335 333 333 333 333 334 334 335 334 334 333 332 331 330 330 329 328 327 326 325 324 323 322 320 319 318 318 317 317 317 316 315 314 314 315 315 314 313 313 313 313 313 313 313 314 314 314 314 314 314 315 315 314 314 313 313 313 313 314 314 314 314
333 333 333 333 333 335 334 334 334 335 335 335 335 334 334 334 334 335 335 335 335 336 336 335 334 333 333 333 333 333 334 335 334 334 333 333 331 331 330 329 328 327 326 324 323 322 321 320 319 318 317 317 317 317 315 314 313 314 315 315 314 313 313 313 313 313 313 313 314 314 314 314 314 315 315 315 315 314 314 315 314 314 313 314 314 314
332 332 333 332 332 333 333 333 334 334 334 335 335 335 334 334 334 335 335 335 335 336 335 334 333 332 333 333 333 333 334 335 335 334 333 333 332 331 330 329 328 327 325 324 323 322 321 319 319 318 317 317 317 316 314 313 313 314 315 315 314 314 314 313 314 314 313 314 314 314 314 315 315 316 316 315 315 314 315 315 315 314 314 314 315 315